Regional Weather Roundup
Issued by NWS

Home | Current Version | Previous Version | Graphics & Text | Print | Product List | Glossary On
Versions: 1 2 3 4 5 6 7 8 9 10 11 12 13 14 15 16 17 18 19 20 21 22 23 24 25 26 27
000
ASUS45 KSLC 241410
RWRUT

UTAH REGIONAL WEATHER ROUNDUP
NATIONAL WEATHER SERVICE SALT LAKE CITY UT
800 AM MDT MON JUL 24 2017

UTZ001>011-023>025-241500-

NORTHERN UTAH

CITY           SKY/WX    TMP DP  RH WIND       PRES   REMARKS
BRIGHAM CITY   SUNNY     67  51  55 CALM      30.04R
HILL AFB       MOSUNNY   71  45  39 E14       30.06R
LOGAN          SUNNY     66  51  58 CALM      30.05R
OGDEN          MOSUNNY   73  47  39 S7        30.03R
SALT LAKE CITY PTSUNNY   79  52  38 SE8       30.02R
TOOELE VALLEY  PTSUNNY   75  45  33 S10       30.03S
WENDOVER       MOSUNNY   73  44  35 NE3       30.02R
HEBER CITY     MOSUNNY   64  48  55 CALM      30.15R
WEST JORDAN    PTSUNNY   77  58  51 S9        30.06R

$$

UTZ011>015-024>027-241500-

CENTRAL/NORTHEAST UTAH

CITY           SKY/WX    TMP DP  RH WIND       PRES   REMARKS
PROVO AIRPORT  MOSUNNY   71  50  47 E3        30.08R
MOAB/CANYONLAN SUNNY     81  53  37 SE12      30.06R
DELTA          PTSUNNY   73  48  40 CALM      30.08R
PRICE          SUNNY     73  45  36 CALM      30.18R
RICHFIELD      SUNNY     70  52  52 CALM      30.15R
ROOSEVELT      CLOUDY    70  43  37 CALM      30.15S
VERNAL         CLOUDY    75  46  35 W5        30.13R

$$

UTZ013>016-019>022-027-241500-

SOUTHERN UTAH

CITY           SKY/WX    TMP DP  RH WIND       PRES   REMARKS
BRYCE CANYON   MOSUNNY   57  50  77 W7        30.31R
CEDAR CITY     MOSUNNY   70  50  49 CALM      30.14S
MILFORD        MOSUNNY   71  50  47 SW12      30.08S
ST GEORGE      MOSUNNY   80  57  45 SE9       29.97R
HANKSVILLE     MOSUNNY   81  50  34 S8G16     30.08R
KANAB          CLOUDY    68  55  64 NW3       30.17R
BLANDING       CLOUDY    69  56  62 S6        30.32R

$$

REGIONAL REPORTS     COLORADO/ARIZONA

CITY           SKY/WX    TMP DP  RH WIND       PRES   REMARKS
CRAIG, CO      CLOUDY    59  47  64 CALM      30.22S
GRAND JUNCTION SUNNY     72  49  44 S6        30.13R
RIFLE, CO      SUNNY     65  48  54 N3        30.20R
MONTROSE, CO   SUNNY     67  50  54 CALM      30.24R
CORTEZ, CO     CLOUDY    67  59  75 CALM      30.24S
COLORADO CITY  PTSUNNY   68  61  77 S5        30.15R
PAGE, AZ       CLOUDY    77  60  55 S12G20    30.09R
GRAND CANYON   CLOUDY    63  58  83 CALM      30.29R
KINGMAN, AZ    CLOUDY    74  64  71 E14       30.04S
FLAGSTAFF, AZ  CLOUDY    59  58  96 CALM      30.31R

$$

REGIONAL REPORTS    NEVADA/IDAHO/WYOMING

CITY           SKY/WX    TMP DP  RH WIND       PRES   REMARKS
LAS VEGAS, NV  PTSUNNY   87  62  43 S8        29.90R
ELY, NY          N/A    N/A N/A N/A MISG      30.21R
ELKO, NV       SUNNY     64  47  53 E7        30.10R
POCATELLO, ID  MOSUNNY   64  47  53 N3        30.03R
BURLEY, ID     PTSUNNY   63  53  70 CALM      29.98R
FORT BRIDGER,    N/A     68  40  35 S3        30.26F
EVANSTON, WY   CLOUDY    65  42  43 SW6       30.25R
ROCK SPRINGS,  CLOUDY    68  38  33 SW7       30.23R
KEMMERER, WY     N/A     59  36  41 NW5       30.26R

$$




USA.gov is the U.S. government's official web portal to all federal, state and local government web resources and services.